Погода Советская Гавань

Погода Советская Гавань : погода сейчас, прогноз погоды и архив. Всё, что Вы хотите узнать о погоде Советская Гавань!

Поиск расширенной информации на нашем сайте:

Другие новости

Новости СМИ2

Главная страница сайта

Новости сайта

03.07.2017

Напоминаем, что на нашем специализированном сайте Метеоцентр.Азия вы можете получить высокодетализированные автоматические прогнозы погоды по пунктам России, СНГ и мира в авиационном формате (включающие направление и скорость ветра, видимость, явления погоды, количество и форму облачности, нижнюю и верхнюю границу облачности).


Погода Советская Гавань - сегодня

Время (UTC), дата Ветер
(°,м/с) 
Видим.   Явления Облачность Т
(°С)
Тd
(°С)
f(%) Тe
(°С)
Pmin
(гПа)
dP
(гПа)
Po
(мм)
O2
(г/м3)
Тmin Tmax R s Состояние
почвы
12 17.09.17 200 (Ю) 4{10}  45000 м    3/0 верхняя 
[Ci fib]
+14.5 +10.2 75 +15  1013.5  -0.2  758  288           
15 17.09.17 тихо ()   22000 м    10/0 средняя, верхняя 
[As op|Cs]
+11.9 +10 88 +13  1013  -0.4  758  291           
18 17.09.17 200 (Ю) 24000 м    10/0 верхняя 
[Cs]
+11.6 +10.5 93 +14  1010.8  -2.3  756  290           
00 18.09.17 320 (СЗ) 20000 м    10/9 300 м кучево-дожд., средняя 
[Cb cap|Ac trans]
+13.5 +11.5 88 +17  1008.6  -1.7  755  288           
18 18.09.17 320 (СЗ) 6-12{14}  4000 м  слаб. ливневой дождь  10/10 600 м кучево-дожд. 
[Cb cap]
+11.2 +9.6 90 +11  987.6  -1.8  739  284           
21 18.09.17 320 (СЗ) 8-14{14}  20000 м  слаб. ливневой дождь  10/9 600 м кучево-дожд., средняя 
[Cb cap|Ac lent]
+11.8 +8.7 81 +10  987.7  0.1  739  284  +11.1    32    влажная 
00 19.09.17 290 (З) 8-14{14}  20000 м  слаб. ливневой дождь  10/8 600 м кучево-дожд., средняя 
[Cb cap|Ac As]
+12.3 +9.4 82 +12  988.4  0.6  739  283           
06 19.09.17 270 (З) 6-12{14}  20000 м  слаб. ливневой дождь  10/8 600 м кучево-дожд., средняя 
[Cb cap|Ac As]
+13.9 +10.6 80 +15  990.8  1.9  741  282           
09 19.09.17 290 (З) 4{12}  20000 м  слаб. ливневой дождь  10/8 600 м кучево-дожд., средняя 
[Cb cap|Ac As]
+13 +10.1 83 +14  993.1  2.3  743  284    +14.1     
12 19.09.17 270 (З) 50000 м  {ливн. осадки}  10/6 600 м средняя, верхняя 
[Sc|Ac trans|Ci fib]
+13.7 +8.9 73 +14  994.6  1.5  744  284           
15 19.09.17 290 (З) 10-16{16}  50000 м    10/6 600 м средняя, верхняя 
[Sc|Ac trans|Ci fib]
+13.8 +8.7 71 +12  995.4  0.8  745  284           
18 19.09.17 290 (З) 8-12{14}  45000 м    10/9 600 м средняя, верхняя 
[Sc|Ac trans|Ci fib]
+13.4 +8.3 71 +12  996.7  1.4  746  285           
21 19.09.17 270 (З) 2{12}  20000 м    10/6 600 м средняя, верхняя 
[Sc|Ac trans|Cc]
+12.3 +8.4 77 +13  997.7  0.9  746  286  +12.3    0.3    влажная 
00 20.09.17 320 (СЗ) 6{10}  20000 м    10/4 600 м средняя, верхняя 
[Sc|Ac trans|Cc]
+15.4 +8.6 64 +15  999  1.3  747  284  +12.3         
03 20.09.17 320 (СЗ) 8-14  20000 м    10/4 600 м средняя, верхняя 
[Sc|Ac trans|Ci fib]
+17.7 +8.5 55 +17  999.3  0.4  748  281           
06 20.09.17 320 (СЗ) 8-12{14}  20000 м    10/8 600 м средняя, верхняя 
[Sc|Ac trans|Ci fib]
+17.1 +8.3 56 +17  999.4  748  282           
09 20.09.17 320 (СЗ) 4-10{12}  20000 м    10/3 600 м средняя, верхняя 
[Sc|Ac lent|Ci fib]
+15.2 +8.5 64 +15  1000.9  1.5  749  284    +17.7       
12 20.09.17 230 (ЮЗ) 15000 м    6/0 верхняя 
[Ci fib]
+12.1 +8.1 77 +12  1002.5  1.6  750  288           
15 20.09.17 230 (ЮЗ) 18000 м    ясно 
+11.3 +6.9 74 +12  1003.1  0.6  750  289           
18 20.09.17 230 (ЮЗ) 23000 м    ясно 
+8 +6.3 89 +8  1003.8  0.6  751  293           
21 20.09.17 200 (Ю) 20000 м    10/8 600 м средняя, верхняя 
[Sc|Ac trans|Ci fib]
+9.2 +6.8 85 +9  1005  1.3  752  292  +6.9        влажная 
00 21.09.17 270 (З) 20000 м    10/3 600 м средняя, верхняя 
[Cu Sc|Ac lent|Ci fib]
+14.7 +10.6 76 +17  1005.8  0.8  752  286           
03 21.09.17 160 (Ю) 20000 м    9/8 600 м кучево-дожд., средняя 
[Cb cap|Ac trans]
+18.9 +10.8 59 +22  1005.5  -0.2  752  282           
06 21.09.17 230 (ЮЗ) 20000 м    8/4 600 м средняя 
[Sc|Ac trans]
+18.8 +10.6 59 +22  1005.7  0.1  752  282           
09 21.09.17 тихо ()   20000 м    3/1 600 м верхняя 
[Sc|Ci fib]
+14.6 +10.3 75 +16  1007.1  1.4  753  286    +20.3       
Время (UTC), дата Ветер
(°,м/с) 
Видим.   Явления Облачность Т
(°С)
Тd
(°С)
f(%) Тe
(°С)
Pmin
(гПа)
dP
(гПа)
Po
(мм)
O2
(г/м3)
Тmin Tmax R s Состояние
почвы

Для получения пояснительной информации подведите курсор к названию столбца.

ПОГОДА Советская Гавань - архив

Всё, что Вы хотите узнать о погоде Советская Гавань - удобно и подробно!

Выберите нужную дату (начиная с 1 января 2015* года) и нажмите кнопку "Найти".
Будут отображены архивные сводки погоды по пункту Советская Гавань, начиная с указанной даты.


Отображать данные в формате CSV (для использования в таблицах Excel)


Внимание! Наш архив погоды предназначен исключительно для личного некоммерческого использования в познавательных целях. Если Вам необходимы официальные справки о состоянии погоды (для производственных, юридических, коммерческих и т.п. целей), обращайтесь в органы Росгидромета.

*Примечание: данная дата относится к архиву по метеостанциям СССР (Россия, СНГ, Балтия).
Архив по метеостанциям Зарубежной Европы и Азии (кроме Китая) хранится 10 дней, по другим регионам земного шара (Китай, Африка, Америка, Австралия, Океания) - 1 день.

Советская Гавань - район местоположения метеостанции


Название, широта, долгота, высота метеостанции:
Советская Гавань 49°ш. 140.3°д. 22 м над ур. моря [Российская Федерация]

Дополнительная информация

В oтличие oт бoльшинства пoгoдных сайтoв мы публикуем пoдрoбную метеoинфoрмацию в детальнoм прoфессиoнальнoм фoрмате.

Характеристики температуры и влажнoсти вoздуха измеряются на высoте 2 м в тени вдали oт зданий и деревьев.
Скoрoсть ветра измеряется на высoте 10 м (на урoвне рoста челoвека скoрoсть ветра ниже в 1.5-2 раза). Если метеoстанция нахoдится в гoрoде или в лесу, тo скoрoсть ветра занижена на 2-4 м/с пo сравнению с oткрытым местoм. Скoрoсть ветра над акватoриями крупных рек и oзёр, а также на вершинах хoлмoв на 2-5 м/с выше, чем в oбычных услoвиях.
Атмoсфернoе давление в разных тoчках местнoсти мoжет значительнo oтличаться oт давления на метеoстанции, в зависимoсти oт услoвий рельефа (при пoдъёме на 10 м давление пoнижается примернo на 1 мм рт.ст.).